Time,TemperatureF,DewpointF,PressureIn,WindDirection,WindDirectionDegrees,WindSpeedMPH,WindSpeedGustMPH,Humidity,HourlyPrecipIn,Conditions,Clouds,dailyrainin,SoftwareType,DateUTC
2013-07-08 00:00:00,71.1,70.2,29.97,West,270,0.0,0.0,97,0.00,,,0.00,pywws,2013-07-08 04:00:00,
2013-07-08 00:01:00,71.2,70.3,29.97,West,270,0.0,0.0,97,0.00,,,0.00,pywws,2013-07-08 04:01:00,
2013-07-08 00:03:00,71.2,70.3,29.97,West,270,0.0,0.0,97,0.00,,,0.00,pywws,2013-07-08 04:03:00,
2013-07-08 00:05:00,71.1,70.2,29.97,West,270,0.0,0.0,97,0.00,,,0.00,pywws,2013-07-08 04:05:00,
2013-07-08 00:09:00,70.9,70.0,29.96,West,270,0.0,0.0,97,0.00,,,0.00,pywws,2013-07-08 04:09:00,
2013-07-08 00:14:00,71.1,70.2,29.96,West,270,0.0,0.0,97,0.00,,,0.00,pywws,2013-07-08 04:14:00,
2013-07-08 00:15:00,70.9,70.0,29.96,West,270,0.0,0.0,97,0.00,,,0.00,pywws,2013-07-08 04:15:00,
2013-07-08 00:21:00,70.7,69.8,29.96,West,270,0.0,0.0,97,0.00,,,0.00,pywws,2013-07-08 04:21:00,
2013-07-08 00:27:00,70.9,70.0,29.96,West,270,0.0,0.0,97,0.00,,,0.00,pywws,2013-07-08 04:27:00,
2013-07-08 00:33:00,70.7,69.8,29.96,West,270,0.0,0.0,97,0.00,,,0.00,pywws,2013-07-08 04:33:00,
2013-07-08 00:39:00,70.7,69.8,29.96,West,270,0.0,0.0,97,0.00,,,0.00,pywws,2013-07-08 04:39:00,
2013-07-08 00:45:00,70.5,69.6,29.97,West,270,0.0,0.0,97,0.00,,,0.00,pywws,2013-07-08 04:45:00,
2013-07-08 00:51:00,70.7,69.8,29.97,West,270,0.0,0.0,97,0.00,,,0.00,pywws,2013-07-08 04:51:00,
2013-07-08 00:57:00,70.7,69.8,29.98,West,270,0.0,0.0,97,0.00,,,0.00,pywws,2013-07-08 04:57:00,
2013-07-08 01:03:00,70.7,69.8,29.98,West,270,0.0,0.0,97,0.00,,,0.00,pywws,2013-07-08 05:03:00,
2013-07-08 01:11:00,70.7,69.8,29.98,West,270,0.0,0.0,97,0.00,,,0.00,pywws,2013-07-08 05:11:00,
2013-07-08 01:19:00,70.7,69.8,29.98,West,270,0.0,0.0,97,0.00,,,0.00,pywws,2013-07-08 05:19:00,
2013-07-08 01:25:00,70.7,70.1,29.98,West,270,0.0,0.0,98,0.00,,,0.00,pywws,2013-07-08 05:25:00,
2013-07-08 01:31:00,70.7,70.1,29.98,West,270,0.0,0.0,98,0.00,,,0.00,pywws,2013-07-08 05:31:00,
2013-07-08 01:38:00,70.5,69.9,29.98,West,270,0.0,0.0,98,0.00,,,0.00,pywws,2013-07-08 05:38:00,
2013-07-08 01:44:00,70.5,69.9,29.98,West,270,0.0,0.0,98,0.00,,,0.00,pywws,2013-07-08 05:44:00,
2013-07-08 01:50:00,70.5,69.9,29.98,West,270,0.0,0.0,98,0.00,,,0.00,pywws,2013-07-08 05:50:00,
2013-07-08 01:56:00,70.7,70.1,29.98,West,270,0.0,0.0,98,0.00,,,0.00,pywws,2013-07-08 05:56:00,
2013-07-08 02:01:00,70.9,70.3,29.98,West,270,0.0,0.0,98,0.00,,,0.00,pywws,2013-07-08 06:01:00,
2013-07-08 02:09:00,70.9,70.3,29.98,West,270,0.0,0.0,98,0.00,,,0.00,pywws,2013-07-08 06:09:00,
2013-07-08 02:15:00,71.1,70.5,29.98,West,270,0.0,0.0,98,0.00,,,0.00,pywws,2013-07-08 06:15:00,
2013-07-08 02:26:00,71.2,70.6,29.98,West,270,0.0,0.0,98,0.00,,,0.00,pywws,2013-07-08 06:26:00,
2013-07-08 02:35:00,71.2,70.6,29.98,West,270,0.0,0.0,98,0.00,,,0.00,pywws,2013-07-08 06:35:00,
2013-07-08 02:44:00,71.2,70.6,29.97,West,270,0.0,0.0,98,0.00,,,0.00,pywws,2013-07-08 06:44:00,
2013-07-08 02:49:00,71.2,70.6,29.97,West,270,0.0,0.0,98,0.00,,,0.00,pywws,2013-07-08 06:49:00,
2013-07-08 02:56:00,71.1,70.5,29.97,West,270,0.0,0.0,98,0.00,,,0.00,pywws,2013-07-08 06:56:00,
2013-07-08 03:03:00,71.1,70.5,29.97,West,270,0.0,0.0,98,0.00,,,0.00,pywws,2013-07-08 07:03:00,
2013-07-08 03:09:00,70.9,70.3,29.97,West,270,0.0,0.0,98,0.00,,,0.00,pywws,2013-07-08 07:09:00,
2013-07-08 03:17:00,70.7,70.1,29.96,West,270,0.0,0.0,98,0.00,,,0.00,pywws,2013-07-08 07:17:00,
2013-07-08 03:26:00,70.9,70.3,29.96,West,270,0.0,0.0,98,0.00,,,0.00,pywws,2013-07-08 07:26:00,
2013-07-08 03:32:00,70.2,69.6,29.96,West,270,0.0,0.0,98,0.00,,,0.00,pywws,2013-07-08 07:32:00,
2013-07-08 03:37:00,70.3,69.7,29.96,West,270,0.0,0.0,98,0.00,,,0.00,pywws,2013-07-08 07:37:00,
2013-07-08 03:43:00,70.3,69.7,29.96,West,270,0.0,0.0,98,0.00,,,0.00,pywws,2013-07-08 07:43:00,
2013-07-08 03:51:00,70.2,69.6,29.96,West,270,0.0,0.0,98,0.00,,,0.00,pywws,2013-07-08 07:51:00,
2013-07-08 03:57:00,70.3,69.7,29.96,West,270,0.0,0.0,98,0.00,,,0.00,pywws,2013-07-08 07:57:00,
2013-07-08 04:03:00,70.0,69.4,29.96,West,270,0.0,0.0,98,0.00,,,0.00,pywws,2013-07-08 08:03:00,
2013-07-08 04:10:00,70.0,69.4,29.96,West,270,0.0,0.0,98,0.00,,,0.00,pywws,2013-07-08 08:10:00,
2013-07-08 04:16:00,69.6,69.3,29.96,West,270,0.0,0.0,99,0.00,,,0.00,pywws,2013-07-08 08:16:00,
2013-07-08 04:21:00,69.6,69.3,29.96,West,270,0.0,0.0,99,0.00,,,0.00,pywws,2013-07-08 08:21:00,
2013-07-08 04:27:00,69.6,69.3,29.96,West,270,0.0,0.0,99,0.00,,,0.00,pywws,2013-07-08 08:27:00,
2013-07-08 04:33:00,69.4,69.1,29.96,West,270,0.0,0.0,99,0.00,,,0.00,pywws,2013-07-08 08:33:00,
2013-07-08 04:38:00,69.6,69.3,29.96,West,270,0.0,0.0,99,0.00,,,0.00,pywws,2013-07-08 08:38:00,
2013-07-08 04:44:00,69.8,69.2,29.96,West,270,0.0,0.0,98,0.00,,,0.00,pywws,2013-07-08 08:44:00,
2013-07-08 04:53:00,69.6,69.3,29.96,West,270,0.0,0.0,99,0.00,,,0.00,pywws,2013-07-08 08:53:00,
2013-07-08 04:59:00,69.6,69.3,29.96,West,270,0.0,0.0,99,0.00,,,0.00,pywws,2013-07-08 08:59:00,
2013-07-08 05:05:00,69.6,69.3,29.96,West,270,0.0,0.0,99,0.00,,,0.00,pywws,2013-07-08 09:05:00,
2013-07-08 05:13:00,69.6,69.3,29.96,West,270,0.0,0.0,99,0.00,,,0.00,pywws,2013-07-08 09:13:00,
2013-07-08 05:19:00,69.6,69.3,29.96,West,270,0.0,0.0,99,0.00,,,0.00,pywws,2013-07-08 09:19:00,
2013-07-08 05:28:00,69.4,69.1,29.96,West,270,0.0,0.0,99,0.00,,,0.00,pywws,2013-07-08 09:28:00,
2013-07-08 05:34:00,69.4,69.1,29.96,West,270,0.0,0.0,99,0.00,,,0.00,pywws,2013-07-08 09:34:00,
2013-07-08 05:40:00,69.4,69.1,29.97,West,270,0.0,0.0,99,0.00,,,0.00,pywws,2013-07-08 09:40:00,
2013-07-08 05:45:00,69.4,69.1,29.97,West,270,0.0,0.0,99,0.00,,,0.00,pywws,2013-07-08 09:45:00,
2013-07-08 05:51:00,69.8,69.2,29.97,West,270,0.0,0.0,98,0.00,,,0.00,pywws,2013-07-08 09:51:00,
2013-07-08 05:57:00,69.8,69.2,29.98,West,270,0.0,0.0,98,0.00,,,0.00,pywws,2013-07-08 09:57:00,
2013-07-08 06:03:00,70.2,69.6,29.98,West,270,0.0,0.0,98,0.00,,,0.00,pywws,2013-07-08 10:03:00,
2013-07-08 06:09:00,70.2,69.6,29.98,West,270,0.0,0.0,98,0.00,,,0.00,pywws,2013-07-08 10:09:00,
2013-07-08 06:15:00,70.3,69.7,29.98,West,270,0.0,0.0,98,0.00,,,0.00,pywws,2013-07-08 10:15:00,
2013-07-08 06:21:00,70.3,69.7,29.98,West,270,0.0,0.0,98,0.00,,,0.00,pywws,2013-07-08 10:21:00,
2013-07-08 06:27:00,70.5,69.9,29.98,West,270,0.0,0.0,98,0.00,,,0.00,pywws,2013-07-08 10:27:00,
2013-07-08 06:33:00,70.9,70.3,29.98,West,270,0.0,0.0,98,0.00,,,0.00,pywws,2013-07-08 10:33:00,
2013-07-08 06:38:00,71.2,70.6,29.98,West,270,0.0,0.0,98,0.00,,,0.00,pywws,2013-07-08 10:38:00,
2013-07-08 06:44:00,71.6,70.7,29.98,West,270,0.0,0.0,97,0.00,,,0.00,pywws,2013-07-08 10:44:00,
2013-07-08 06:49:00,72.3,71.4,29.98,West,270,0.0,0.0,97,0.00,,,0.00,pywws,2013-07-08 10:49:00,
2013-07-08 06:52:00,73.0,72.1,29.98,West,270,0.0,0.0,97,0.00,,,0.00,pywws,2013-07-08 10:52:00,
2013-07-08 06:57:00,74.3,73.7,29.98,West,270,0.0,0.0,98,0.00,,,0.00,pywws,2013-07-08 10:57:00,
2013-07-08 07:03:00,73.9,73.6,29.98,West,270,0.0,0.0,99,0.00,,,0.00,pywws,2013-07-08 11:03:00,
2013-07-08 07:09:00,76.1,75.5,29.98,West,270,0.0,0.0,98,0.00,,,0.00,pywws,2013-07-08 11:09:00,
2013-07-08 07:14:00,76.5,75.9,29.98,West,270,0.0,0.0,98,0.00,,,0.00,pywws,2013-07-08 11:14:00,
2013-07-08 07:20:00,77.5,76.6,29.98,South,180,0.0,0.0,97,0.00,,,0.00,pywws,2013-07-08 11:20:00,
2013-07-08 07:26:00,79.5,78.3,29.98,South,180,0.0,0.0,96,0.00,,,0.00,pywws,2013-07-08 11:26:00,
2013-07-08 07:32:00,80.8,78.6,29.99,South,180,0.0,0.0,93,0.00,,,0.00,pywws,2013-07-08 11:32:00,
2013-07-08 07:37:00,81.3,76.7,29.99,West,270,0.0,0.0,86,0.00,,,0.00,pywws,2013-07-08 11:37:00,
2013-07-08 07:43:00,82.2,75.4,29.98,West,270,0.0,0.0,80,0.00,,,0.00,pywws,2013-07-08 11:43:00,
2013-07-08 07:49:00,80.1,71.8,29.98,South,180,0.0,0.0,76,0.00,,,0.00,pywws,2013-07-08 11:49:00,
2013-07-08 07:54:00,81.0,73.4,29.99,NW,315,0.0,0.7,78,0.00,,,0.00,pywws,2013-07-08 11:54:00,
2013-07-08 08:00:00,80.1,72.9,29.99,West,270,0.0,0.0,79,0.00,,,0.00,pywws,2013-07-08 12:00:00,
2013-07-08 08:05:00,79.2,71.7,29.99,South,180,0.0,0.0,78,0.00,,,0.00,pywws,2013-07-08 12:05:00,
2013-07-08 08:11:00,82.6,74.6,30.00,West,270,0.0,0.0,77,0.00,,,0.00,pywws,2013-07-08 12:11:00,
2013-07-08 08:17:00,84.6,74.9,29.99,South,180,0.0,0.0,73,0.00,,,0.00,pywws,2013-07-08 12:17:00,
2013-07-08 08:22:00,82.9,73.4,29.99,NW,315,0.0,0.0,73,0.00,,,0.00,pywws,2013-07-08 12:22:00,
2013-07-08 08:28:00,82.6,73.8,29.99,East,90,0.0,0.0,75,0.00,,,0.00,pywws,2013-07-08 12:28:00,
2013-07-08 08:33:00,82.4,72.9,29.99,North,0,0.0,0.0,73,0.00,,,0.00,pywws,2013-07-08 12:33:00,
2013-07-08 08:39:00,81.5,72.0,29.99,West,270,0.0,0.0,73,0.00,,,0.00,pywws,2013-07-08 12:39:00,
2013-07-08 08:45:00,81.7,72.6,29.99,West,270,0.0,0.0,74,0.00,,,0.00,pywws,2013-07-08 12:45:00,
2013-07-08 08:50:00,80.6,71.1,29.99,West,270,0.0,0.0,73,0.00,,,0.00,pywws,2013-07-08 12:50:00,
2013-07-08 08:56:00,81.9,72.3,29.99,West,270,0.0,0.0,73,0.00,,,0.00,pywws,2013-07-08 12:56:00,
2013-07-08 09:01:00,80.4,71.7,30.00,South,180,0.0,0.0,75,0.00,,,0.00,pywws,2013-07-08 13:01:00,
2013-07-08 09:07:00,80.8,71.7,30.00,West,270,0.0,0.0,74,0.00,,,0.00,pywws,2013-07-08 13:07:00,
2013-07-08 09:13:00,82.2,73.5,30.00,SW,225,0.0,0.0,75,0.00,,,0.00,pywws,2013-07-08 13:13:00,
2013-07-08 09:18:00,81.9,72.7,30.00,North,0,0.0,0.0,74,0.00,,,0.00,pywws,2013-07-08 13:18:00,
2013-07-08 09:24:00,81.3,72.6,30.00,North,0,0.0,0.0,75,0.00,,,0.00,pywws,2013-07-08 13:24:00,
2013-07-08 09:29:00,82.4,73.7,30.00,East,90,0.0,0.0,75,0.00,,,0.00,pywws,2013-07-08 13:29:00,
2013-07-08 09:35:00,83.7,74.9,30.00,SW,225,0.0,0.0,75,0.00,,,0.00,pywws,2013-07-08 13:35:00,
2013-07-08 09:41:00,83.5,73.5,30.00,North,0,0.0,0.0,72,0.00,,,0.00,pywws,2013-07-08 13:41:00,
2013-07-08 09:42:00,84.9,74.9,30.00,West,270,0.0,0.0,72,0.00,,,0.00,pywws,2013-07-08 13:42:00,
2013-07-08 09:48:00,86.5,75.6,30.00,West,270,0.0,0.0,70,0.00,,,0.00,pywws,2013-07-08 13:48:00,
2013-07-08 09:53:00,84.9,72.7,30.00,SW,225,0.0,0.0,67,0.00,,,0.00,pywws,2013-07-08 13:53:00,
2013-07-08 09:59:00,84.2,72.0,30.00,West,270,0.0,0.0,67,0.00,,,0.00,pywws,2013-07-08 13:59:00,
2013-07-08 10:05:00,84.2,72.5,30.00,NW,315,0.0,1.6,68,0.00,,,0.00,pywws,2013-07-08 14:05:00,
2013-07-08 10:10:00,86.5,74.7,29.99,West,270,0.0,0.0,68,0.00,,,0.00,pywws,2013-07-08 14:10:00,
2013-07-08 10:16:00,85.6,72.5,30.00,NW,315,0.0,0.0,65,0.00,,,0.00,pywws,2013-07-08 14:16:00,
2013-07-08 10:21:00,85.5,72.8,29.99,SE,135,0.0,1.6,66,0.00,,,0.00,pywws,2013-07-08 14:21:00,
2013-07-08 10:27:00,85.1,72.4,30.00,SE,135,0.0,0.0,66,0.00,,,0.00,pywws,2013-07-08 14:27:00,
2013-07-08 10:33:00,86.5,72.9,29.99,NW,315,0.0,0.0,64,0.00,,,0.00,pywws,2013-07-08 14:33:00,
2013-07-08 10:38:00,86.2,72.5,30.00,West,270,0.0,0.0,64,0.00,,,0.00,pywws,2013-07-08 14:38:00,
2013-07-08 10:44:00,84.7,71.6,30.00,West,270,0.0,0.0,65,0.00,,,0.00,pywws,2013-07-08 14:44:00,
2013-07-08 10:49:00,85.6,72.5,30.00,NW,315,0.0,0.0,65,0.00,,,0.00,pywws,2013-07-08 14:49:00,
2013-07-08 10:55:00,85.1,72.4,30.00,North,0,0.0,0.0,66,0.00,,,0.00,pywws,2013-07-08 14:55:00,
2013-07-08 11:01:00,87.3,74.9,30.00,East,90,0.0,0.0,67,0.00,,,0.00,pywws,2013-07-08 15:01:00,
2013-07-08 11:07:00,88.5,74.8,30.00,West,270,0.0,0.0,64,0.00,,,0.00,pywws,2013-07-08 15:07:00,
2013-07-08 11:13:00,85.1,71.5,30.01,East,90,0.0,0.0,64,0.00,,,0.00,pywws,2013-07-08 15:13:00,
2013-07-08 11:19:00,85.1,72.4,30.01,South,180,0.0,0.0,66,0.00,,,0.00,pywws,2013-07-08 15:19:00,
2013-07-08 11:25:00,87.4,75.1,30.01,West,270,0.0,0.0,67,0.00,,,0.00,pywws,2013-07-08 15:25:00,
2013-07-08 11:31:00,87.1,73.9,30.00,North,0,0.0,0.0,65,0.00,,,0.00,pywws,2013-07-08 15:31:00,
2013-07-08 11:37:00,89.8,74.5,30.01,North,0,0.0,0.0,61,0.00,,,0.00,pywws,2013-07-08 15:37:00,
2013-07-08 11:44:00,88.3,73.6,30.01,SE,135,0.7,3.1,62,0.00,,,0.00,pywws,2013-07-08 15:44:00,
2013-07-08 11:49:00,87.6,73.4,30.01,South,180,0.0,1.6,63,0.00,,,0.00,pywws,2013-07-08 15:49:00,
2013-07-08 11:55:00,90.3,75.0,30.01,West,270,0.0,0.0,61,0.00,,,0.00,pywws,2013-07-08 15:55:00,
2013-07-08 12:01:00,88.9,71.6,30.01,West,270,0.0,0.7,57,0.00,,,0.00,pywws,2013-07-08 16:01:00,
2013-07-08 12:06:00,89.1,71.8,30.01,North,0,0.0,0.0,57,0.00,,,0.00,pywws,2013-07-08 16:06:00,
2013-07-08 12:12:00,86.7,71.6,30.01,West,270,0.0,0.0,61,0.00,,,0.00,pywws,2013-07-08 16:12:00,
2013-07-08 12:18:00,88.9,74.1,30.01,West,270,0.0,0.0,62,0.00,,,0.00,pywws,2013-07-08 16:18:00,
2013-07-08 12:24:00,90.1,73.3,30.01,SW,225,0.0,0.0,58,0.00,,,0.00,pywws,2013-07-08 16:24:00,
2013-07-08 12:29:00,88.9,72.2,30.01,South,180,0.0,0.0,58,0.00,,,0.00,pywws,2013-07-08 16:29:00,
2013-07-08 12:35:00,89.6,71.8,30.01,SW,225,0.0,1.6,56,0.00,,,0.00,pywws,2013-07-08 16:35:00,
2013-07-08 12:41:00,88.3,70.6,30.01,West,270,0.0,0.0,56,0.00,,,0.00,pywws,2013-07-08 16:41:00,
2013-07-08 12:46:00,91.2,72.8,30.01,West,270,0.0,0.7,55,0.00,,,0.00,pywws,2013-07-08 16:46:00,
2013-07-08 12:52:00,90.0,72.6,30.01,NW,315,0.0,0.0,57,0.00,,,0.00,pywws,2013-07-08 16:52:00,
2013-07-08 12:57:00,87.8,68.5,30.01,East,90,0.0,0.0,53,0.00,,,0.00,pywws,2013-07-08 16:57:00,
2013-07-08 13:03:00,88.0,68.7,30.01,West,270,0.7,3.1,53,0.00,,,0.00,pywws,2013-07-08 17:03:00,
2013-07-08 13:09:00,86.9,69.8,30.01,NE,45,0.0,0.0,57,0.00,,,0.00,pywws,2013-07-08 17:09:00,
2013-07-08 13:14:00,89.8,70.3,30.01,South,180,0.0,0.0,53,0.00,,,0.00,pywws,2013-07-08 17:14:00,
2013-07-08 13:20:00,90.7,71.7,30.01,East,90,0.0,0.7,54,0.00,,,0.00,pywws,2013-07-08 17:20:00,
2013-07-08 13:25:00,90.0,71.0,30.01,West,270,0.7,3.8,54,0.00,,,0.00,pywws,2013-07-08 17:25:00,
2013-07-08 13:31:00,91.0,71.5,30.01,West,270,0.0,0.0,53,0.00,,,0.00,pywws,2013-07-08 17:31:00,
2013-07-08 13:37:00,91.4,70.7,30.01,South,180,0.0,0.0,51,0.00,,,0.00,pywws,2013-07-08 17:37:00,
2013-07-08 13:42:00,91.8,71.6,30.01,NE,45,0.0,1.6,52,0.00,,,0.00,pywws,2013-07-08 17:42:00,
2013-07-08 13:47:00,90.1,69.5,30.01,West,270,0.0,0.0,51,0.00,,,0.00,pywws,2013-07-08 17:47:00,
2013-07-08 13:53:00,91.9,72.3,30.01,West,270,0.0,0.0,53,0.00,,,0.00,pywws,2013-07-08 17:53:00,
2013-07-08 13:58:00,90.3,68.5,30.01,SW,225,0.0,0.7,49,0.00,,,0.00,pywws,2013-07-08 17:58:00,
2013-07-08 14:03:00,90.0,68.8,30.01,West,270,0.0,0.0,50,0.00,,,0.00,pywws,2013-07-08 18:03:00,
2013-07-08 14:09:00,90.3,69.7,30.01,SW,225,0.7,1.6,51,0.00,,,0.00,pywws,2013-07-08 18:09:00,
2013-07-08 14:15:00,90.1,68.4,30.01,SW,225,0.0,1.6,49,0.00,,,0.00,pywws,2013-07-08 18:15:00,
2013-07-08 14:21:00,89.6,68.5,30.01,South,180,0.7,2.2,50,0.00,,,0.00,pywws,2013-07-08 18:21:00,
2013-07-08 14:27:00,91.2,72.2,30.01,SE,135,0.0,2.2,54,0.00,,,0.00,pywws,2013-07-08 18:27:00,
2013-07-08 14:32:00,90.9,69.6,30.01,SE,135,0.0,0.7,50,0.00,,,0.00,pywws,2013-07-08 18:32:00,
2013-07-08 14:37:00,90.1,66.5,30.01,South,180,0.0,1.6,46,0.00,,,0.00,pywws,2013-07-08 18:37:00,
2013-07-08 14:43:00,90.0,65.7,30.01,SW,225,0.0,0.7,45,0.00,,,0.00,pywws,2013-07-08 18:43:00,
2013-07-08 14:48:00,90.9,68.4,30.01,SE,135,0.0,0.0,48,0.00,,,0.00,pywws,2013-07-08 18:48:00,
2013-07-08 14:53:00,94.1,70.7,30.00,North,0,0.0,0.0,47,0.00,,,0.00,pywws,2013-07-08 18:53:00,
2013-07-08 14:59:00,90.7,67.6,30.00,West,270,0.0,0.0,47,0.00,,,0.00,pywws,2013-07-08 18:59:00,
2013-07-08 15:05:00,91.4,68.9,30.00,South,180,0.0,0.7,48,0.00,,,0.00,pywws,2013-07-08 19:05:00,
2013-07-08 15:11:00,91.2,69.3,30.00,NW,315,0.0,0.0,49,0.00,,,0.00,pywws,2013-07-08 19:11:00,
2013-07-08 15:17:00,91.0,68.0,30.00,SW,225,0.0,0.0,47,0.00,,,0.00,pywws,2013-07-08 19:17:00,
2013-07-08 15:22:00,90.9,67.2,30.00,North,0,0.7,7.6,46,0.00,,,0.00,pywws,2013-07-08 19:22:00,
2013-07-08 15:28:00,93.4,70.1,30.00,West,270,0.0,0.7,47,0.00,,,0.00,pywws,2013-07-08 19:28:00,
2013-07-08 15:33:00,93.0,71.0,30.00,West,270,0.0,0.0,49,0.00,,,0.00,pywws,2013-07-08 19:33:00,
2013-07-08 15:41:00,91.4,68.3,30.00,South,180,0.0,0.7,47,0.00,,,0.00,pywws,2013-07-08 19:41:00,
2013-07-08 15:47:00,93.9,69.3,29.99,SE,135,0.0,0.0,45,0.00,,,0.00,pywws,2013-07-08 19:47:00,
2013-07-08 15:52:00,91.2,66.9,29.99,North,0,0.0,0.0,45,0.00,,,0.00,pywws,2013-07-08 19:52:00,
2013-07-08 15:57:00,93.4,70.1,29.99,North,0,0.0,0.0,47,0.00,,,0.00,pywws,2013-07-08 19:57:00,
2013-07-08 16:02:00,93.9,68.6,29.99,NW,315,0.0,0.0,44,0.00,,,0.00,pywws,2013-07-08 20:02:00,
2013-07-08 16:08:00,89.8,64.9,29.99,North,0,0.0,0.0,44,0.00,,,0.00,pywws,2013-07-08 20:08:00,
2013-07-08 16:13:00,92.3,70.3,29.99,West,270,0.0,0.0,49,0.00,,,0.00,pywws,2013-07-08 20:13:00,
2013-07-08 16:18:00,93.4,69.5,30.00,South,180,0.0,0.0,46,0.00,,,0.00,pywws,2013-07-08 20:18:00,
2013-07-08 16:23:00,92.7,68.8,30.00,North,0,0.0,1.6,46,0.00,,,0.00,pywws,2013-07-08 20:23:00,
2013-07-08 16:28:00,92.3,68.5,30.00,South,180,0.0,0.0,46,0.00,,,0.00,pywws,2013-07-08 20:28:00,
2013-07-08 16:34:00,92.1,69.6,30.00,North,0,0.0,0.0,48,0.00,,,0.00,pywws,2013-07-08 20:34:00,
2013-07-08 16:39:00,90.0,67.0,30.00,SE,135,0.0,0.0,47,0.00,,,0.00,pywws,2013-07-08 20:39:00,
2013-07-08 16:44:00,87.8,66.8,30.00,West,270,0.0,0.7,50,0.00,,,0.00,pywws,2013-07-08 20:44:00,
2013-07-08 16:49:00,90.5,69.3,30.00,East,90,0.0,0.0,50,0.00,,,0.00,pywws,2013-07-08 20:49:00,
2013-07-08 16:55:00,91.0,68.6,29.99,West,270,0.0,0.7,48,0.00,,,0.00,pywws,2013-07-08 20:55:00,
2013-07-08 17:00:00,90.9,70.2,29.99,West,270,0.0,0.0,51,0.00,,,0.00,pywws,2013-07-08 21:00:00,
2013-07-08 17:06:00,89.8,68.6,29.99,West,270,0.0,0.0,50,0.00,,,0.00,pywws,2013-07-08 21:06:00,
2013-07-08 17:11:00,88.9,67.8,29.99,North,0,0.0,0.0,50,0.00,,,0.00,pywws,2013-07-08 21:11:00,
2013-07-08 17:17:00,89.2,69.3,29.99,West,270,0.0,0.0,52,0.00,,,0.00,pywws,2013-07-08 21:17:00,
2013-07-08 17:22:00,88.5,68.0,29.99,North,0,0.0,0.0,51,0.00,,,0.00,pywws,2013-07-08 21:22:00,
2013-07-08 17:27:00,89.2,69.3,29.99,West,270,0.0,0.0,52,0.00,,,0.00,pywws,2013-07-08 21:27:00,
2013-07-08 17:34:00,88.2,68.3,29.99,South,180,0.0,0.0,52,0.00,,,0.00,pywws,2013-07-08 21:34:00,
2013-07-08 17:40:00,86.4,67.2,29.99,West,270,0.0,0.0,53,0.00,,,0.00,pywws,2013-07-08 21:40:00,
2013-07-08 17:46:00,86.7,69.1,29.98,West,270,0.0,0.0,56,0.00,,,0.00,pywws,2013-07-08 21:46:00,
2013-07-08 17:52:00,86.7,69.1,29.99,North,0,0.0,0.0,56,0.00,,,0.00,pywws,2013-07-08 21:52:00,
2013-07-08 17:58:00,86.7,69.1,29.98,East,90,0.0,0.0,56,0.00,,,0.00,pywws,2013-07-08 21:58:00,
2013-07-08 18:05:00,86.4,69.8,29.99,West,270,0.0,0.0,58,0.00,,,0.00,pywws,2013-07-08 22:05:00,
2013-07-08 18:11:00,86.4,69.3,29.99,West,270,0.0,0.0,57,0.00,,,0.00,pywws,2013-07-08 22:11:00,
2013-07-08 18:17:00,86.2,69.1,30.00,North,0,0.0,0.0,57,0.00,,,0.00,pywws,2013-07-08 22:17:00,
2013-07-08 18:23:00,85.6,70.1,30.00,NW,315,0.0,0.0,60,0.00,,,0.00,pywws,2013-07-08 22:23:00,
2013-07-08 18:29:00,85.3,69.8,30.00,West,270,0.0,0.0,60,0.00,,,0.00,pywws,2013-07-08 22:29:00,
2013-07-08 18:35:00,85.3,70.3,30.01,SE,135,0.0,0.7,61,0.00,,,0.00,pywws,2013-07-08 22:35:00,
2013-07-08 18:41:00,84.4,69.9,30.01,SW,225,0.0,0.0,62,0.00,,,0.00,pywws,2013-07-08 22:41:00,
2013-07-08 18:46:00,84.0,70.5,30.01,South,180,0.0,0.0,64,0.00,,,0.00,pywws,2013-07-08 22:46:00,
2013-07-08 18:51:00,84.2,70.7,30.01,North,0,0.0,0.0,64,0.00,,,0.00,pywws,2013-07-08 22:51:00,
2013-07-08 18:59:00,84.2,70.7,30.01,North,0,0.0,0.0,64,0.00,,,0.00,pywws,2013-07-08 22:59:00,
2013-07-08 19:05:00,83.3,70.7,30.01,North,0,0.0,0.0,66,0.00,,,0.00,pywws,2013-07-08 23:05:00,
2013-07-08 19:10:00,80.1,68.5,30.02,South,180,0.0,3.1,68,0.00,,,0.00,pywws,2013-07-08 23:10:00,
2013-07-08 19:16:00,78.1,68.7,30.03,NE,45,0.0,6.0,73,0.00,,,0.00,pywws,2013-07-08 23:16:00,
2013-07-08 19:21:00,77.2,68.2,30.02,East,90,0.0,0.0,74,0.00,,,0.00,pywws,2013-07-08 23:21:00,
2013-07-08 19:27:00,76.6,68.5,30.02,North,0,0.0,0.0,76,0.00,,,0.00,pywws,2013-07-08 23:27:00,
2013-07-08 19:32:00,75.9,67.8,30.03,North,0,0.0,2.2,76,0.00,,,0.00,pywws,2013-07-08 23:32:00,
2013-07-08 19:37:00,75.6,67.8,30.03,NW,315,0.0,0.0,77,0.00,,,0.00,pywws,2013-07-08 23:37:00,
2013-07-08 19:42:00,75.2,67.5,30.03,North,0,0.0,0.0,77,0.00,,,0.00,pywws,2013-07-08 23:42:00,
2013-07-08 19:48:00,75.0,67.7,30.03,NE,45,0.0,0.7,78,0.00,,,0.00,pywws,2013-07-08 23:48:00,
2013-07-08 19:53:00,74.8,67.9,30.03,North,0,0.0,0.0,79,0.00,,,0.00,pywws,2013-07-08 23:53:00,
2013-07-08 19:58:00,74.8,67.9,30.04,North,0,0.0,0.0,79,0.00,,,0.00,pywws,2013-07-08 23:58:00,
2013-07-08 20:03:00,74.7,67.7,30.05,East,90,0.0,2.2,79,0.00,,,0.00,pywws,2013-07-09 00:03:00,
2013-07-08 20:09:00,74.5,67.5,30.04,West,270,0.0,0.7,79,0.00,,,0.00,pywws,2013-07-09 00:09:00,
2013-07-08 20:17:00,74.1,67.5,30.05,North,0,0.0,1.6,80,0.00,,,0.00,pywws,2013-07-09 00:17:00,
2013-07-08 20:23:00,73.9,67.4,30.05,North,0,0.0,0.0,80,0.00,,,0.00,pywws,2013-07-09 00:23:00,
2013-07-08 20:28:00,73.8,67.6,30.06,NE,45,0.0,0.0,81,0.00,,,0.00,pywws,2013-07-09 00:28:00,
2013-07-08 20:34:00,73.8,67.6,30.06,West,270,0.0,0.0,81,0.00,,,0.00,pywws,2013-07-09 00:34:00,
2013-07-08 20:39:00,73.6,67.4,30.07,East,90,0.0,0.0,81,0.00,,,0.00,pywws,2013-07-09 00:39:00,
2013-07-08 20:44:00,73.4,67.2,30.07,North,0,0.0,0.0,81,0.00,,,0.00,pywws,2013-07-09 00:44:00,
2013-07-08 20:50:00,73.2,67.4,30.08,North,0,0.0,0.0,82,0.00,,,0.00,pywws,2013-07-09 00:50:00,
2013-07-08 20:55:00,73.0,67.2,30.07,West,270,0.0,0.0,82,0.00,,,0.00,pywws,2013-07-09 00:55:00,
2013-07-08 21:01:00,72.5,66.7,30.08,North,0,0.0,0.0,82,0.00,,,0.00,pywws,2013-07-09 01:01:00,
2013-07-08 21:08:00,72.5,67.0,30.08,North,0,0.0,0.0,83,0.00,,,0.00,pywws,2013-07-09 01:08:00,
2013-07-08 21:13:00,72.3,66.9,30.07,NE,45,0.0,0.0,83,0.00,,,0.00,pywws,2013-07-09 01:13:00,
2013-07-08 21:19:00,72.1,66.7,30.08,North,0,0.0,0.0,83,0.00,,,0.00,pywws,2013-07-09 01:19:00,
2013-07-08 21:24:00,72.1,66.7,30.08,North,0,0.0,0.0,83,0.00,,,0.00,pywws,2013-07-09 01:24:00,
2013-07-08 21:29:00,72.0,66.5,30.08,North,0,0.0,0.0,83,0.00,,,0.00,pywws,2013-07-09 01:29:00,
2013-07-08 21:34:00,72.0,66.5,30.08,East,90,0.0,0.0,83,0.00,,,0.00,pywws,2013-07-09 01:34:00,
2013-07-08 21:40:00,71.8,66.3,30.08,North,0,0.0,0.0,83,0.00,,,0.00,pywws,2013-07-09 01:40:00,
2013-07-08 21:48:00,71.8,66.7,30.08,North,0,0.0,0.0,84,0.00,,,0.00,pywws,2013-07-09 01:48:00,
2013-07-08 21:54:00,71.6,66.5,30.09,NW,315,0.0,0.0,84,0.00,,,0.00,pywws,2013-07-09 01:54:00,
2013-07-08 21:59:00,71.4,66.7,30.09,North,0,0.0,0.0,85,0.00,,,0.00,pywws,2013-07-09 01:59:00,
2013-07-08 22:04:00,71.4,66.7,30.09,North,0,0.0,0.0,85,0.00,,,0.00,pywws,2013-07-09 02:04:00,
2013-07-08 22:10:00,71.4,66.7,30.09,North,0,0.0,0.0,85,0.00,,,0.00,pywws,2013-07-09 02:10:00,
2013-07-08 22:16:00,71.2,66.5,30.09,South,180,0.0,0.0,85,0.00,,,0.00,pywws,2013-07-09 02:16:00,
2013-07-08 22:21:00,71.1,66.3,30.09,West,270,0.0,0.0,85,0.00,,,0.00,pywws,2013-07-09 02:21:00,
2013-07-08 22:27:00,71.1,66.7,30.09,North,0,0.0,0.0,86,0.00,,,0.00,pywws,2013-07-09 02:27:00,
2013-07-08 22:32:00,71.2,66.8,30.10,North,0,0.0,0.0,86,0.00,,,0.00,pywws,2013-07-09 02:32:00,
2013-07-08 22:37:00,71.2,66.8,30.09,North,0,0.0,0.0,86,0.00,,,0.00,pywws,2013-07-09 02:37:00,
2013-07-08 22:44:00,71.2,66.8,30.09,North,0,0.0,0.0,86,0.00,,,0.00,pywws,2013-07-09 02:44:00,
2013-07-08 22:49:00,71.1,66.7,30.10,North,0,0.0,0.0,86,0.00,,,0.00,pywws,2013-07-09 02:49:00,
2013-07-08 22:56:00,71.1,66.7,30.09,North,0,0.0,0.0,86,0.00,,,0.00,pywws,2013-07-09 02:56:00,
2013-07-08 23:05:00,71.1,66.7,30.09,North,0,0.0,0.0,86,0.00,,,0.00,pywws,2013-07-09 03:05:00,
2013-07-08 23:11:00,71.1,66.7,30.09,East,90,0.0,0.0,86,0.00,,,0.00,pywws,2013-07-09 03:11:00,
2013-07-08 23:16:00,70.9,66.5,30.09,North,0,0.0,0.0,86,0.00,,,0.00,pywws,2013-07-09 03:16:00,
2013-07-08 23:22:00,70.7,66.3,30.09,East,90,0.0,0.0,86,0.00,,,0.00,pywws,2013-07-09 03:22:00,
2013-07-08 23:28:00,70.3,66.3,30.09,North,0,0.0,0.0,87,0.00,,,0.00,pywws,2013-07-09 03:28:00,
2013-07-08 23:34:00,70.2,66.4,30.09,North,0,0.0,0.0,88,0.00,,,0.00,pywws,2013-07-09 03:34:00,
2013-07-08 23:40:00,70.0,66.3,30.09,North,0,0.0,0.0,88,0.00,,,0.00,pywws,2013-07-09 03:40:00,
2013-07-08 23:47:00,69.8,66.4,30.10,East,90,0.0,0.0,89,0.00,,,0.00,pywws,2013-07-09 03:47:00,
2013-07-08 23:53:00,69.6,66.9,30.10,North,0,0.0,0.0,91,0.00,,,0.00,pywws,2013-07-09 03:53:00,
2013-07-08 23:59:00,69.6,66.9,30.11,North,0,0.0,0.0,91,0.00,,,0.00,pywws,2013-07-09 03:59:00,